Location: Knowlton
(51.2333°N, 1.2667°E)
Time: 04:40:08
(UTC+00:00)

BREEZE-M DEB (TANK) - Pass Details

Date: 18 April 2021
Orbit: 317 x 14227 km, 49.6° (Epoch: 06 May)

Event Time Altitude Azimuth Distance (km) Brightness Sun altitude
Rises 20:01:55 0° 274° (W) 2,671 7.3 -10.1°
Reaches altitude 10° 20:04:22 10° 269° (W) 1,392 5.6 -10.4°
Maximum altitude 20:06:50 52° 190° (S) 405 1.8 -10.7°
Enters shadow 20:08:13 20° 118° (ESE) 847 3.0 -10.9°
